Weather History for KCSQ - July, 2014

Change the Weather History Date:

Monday, July 14, 2014

  Actual Average Record
Temperature  
Mean Temperature 63 °F -  
Max Temperature 73 °F 87 °F 104 °F (1980)
Min Temperature 53 °F 65 °F 46 °F (1950)
Degree Days  
Heating Degree Days 2    
Growing Degree Days 13 (Base 50)    
Moisture  
Dew Point 56 °F    
Average Humidity 70    
Maximum Humidity 100    
Minimum Humidity 43    
Precipitation  
Precipitation 0.05 in - - ()
Sea Level Pressure  
Sea Level Pressure 30.02 in    
Wind  
Wind Speed 10 mph (NW)    
Max Wind Speed 25 mph    
Max Gust Speed 31 mph    
Visibility 10 miles    
Events Rain    
Averages and records for this station are not official NWS values.
T = Trace of Precipitation, MM = Missing Value Source: NWS Daily Summary

Daily Weather History Graph

Daily Weather History Graph

Search for Another Location

Airport or City:

Trip Planner

Search our weather history database for the weather conditions in past years. The results will help you decide how hot, cold, wet, or windy it might be!

Date:

Astronomy

Jul. 14, 2014 Rise Set
Actual Time 5:57 AM CDT 8:48 PM CDT
Civil Twilight 5:24 AM CDT 9:21 PM CDT
Nautical Twilight 4:43 AM CDT 10:02 PM CDT
Astronomical Twilight 3:55 AM CDT 10:49 PM CDT
Moon 10:17 PM CDT (7/14) 8:42 AM CDT (7/14)
Length of Visible Light 15h 56m
Length of Day
14h 51m
Waning Gibbous, 93% of the Moon is Illuminated
Jul 14
Waning Gibbous
Jul 18
Last Quarter
Jul 26
New
Aug 3
First Quarter
Aug 10
Full

Hourly Weather History & Observations

Time (CDT) Temp. Dew Point Humidity Pressure Visibility Wind Dir Wind Speed Gust Speed Precip Events Conditions
12:00 AM 69.8 °F 66.2 °F 88% 29.97 in 10.0 mi West 5.8 mph - N/A   Clear
12:15 AM 69.8 °F 66.2 °F 88% 29.97 in 10.0 mi WSW 5.8 mph - N/A   Clear
12:35 AM 69.8 °F 66.2 °F 88% 29.97 in 10.0 mi WSW 5.8 mph - N/A   Clear
12:55 AM 68.0 °F 66.2 °F 94% 29.97 in 10.0 mi SW 5.8 mph - N/A   Clear
1:15 AM 68.0 °F 66.2 °F 94% 29.96 in 10.0 mi SW 5.8 mph - N/A   Clear
1:35 AM 68.0 °F 66.2 °F 94% 29.96 in 10.0 mi WSW 4.6 mph - N/A   Clear
1:55 AM 68.0 °F 66.2 °F 94% 29.96 in 10.0 mi WSW 4.6 mph - N/A   Clear
2:15 AM 66.2 °F 64.4 °F 94% 29.95 in 10.0 mi WSW 4.6 mph - N/A   Clear
2:35 AM 66.2 °F 64.4 °F 94% 29.95 in - WSW 4.6 mph - N/A   Clear
2:55 AM 66.2 °F 64.4 °F 94% 29.95 in 10.0 mi WSW 4.6 mph - N/A   Clear
3:15 AM 66.2 °F 64.4 °F 94% 29.96 in 10.0 mi North 11.5 mph 19.6 mph N/A   Clear
3:35 AM 68.0 °F 66.2 °F 94% 29.96 in 10.0 mi NNW 8.1 mph - N/A   Clear
3:55 AM 68.0 °F 66.2 °F 94% 29.96 in 10.0 mi NW 4.6 mph - N/A   Partly Cloudy
4:15 AM 66.2 °F 66.2 °F 100% 29.96 in 10.0 mi WNW 4.6 mph - N/A   Partly Cloudy
4:35 AM 66.2 °F 64.4 °F 94% 29.96 in 10.0 mi NNW 6.9 mph - N/A   Partly Cloudy
4:55 AM 66.2 °F 64.4 °F 94% 29.96 in 10.0 mi NNW 6.9 mph - N/A   Scattered Clouds
5:15 AM 68.0 °F 64.4 °F 88% 29.97 in 10.0 mi NNW 9.2 mph - N/A   Scattered Clouds
5:35 AM 68.0 °F 64.4 °F 88% 29.97 in 10.0 mi NNW 10.4 mph - N/A   Overcast
5:55 AM 66.2 °F 62.6 °F 88% 29.98 in 10.0 mi NNW 10.4 mph - N/A   Overcast
6:15 AM 66.2 °F 62.6 °F 88% 29.99 in 10.0 mi NW 9.2 mph - N/A   Mostly Cloudy
6:35 AM 66.2 °F 62.6 °F 88% 30.00 in 10.0 mi NW 9.2 mph - N/A   Overcast
6:55 AM 64.4 °F 59.0 °F 83% 30.02 in 3.0 mi NNW 19.6 mph 26.5 mph 0.02 in Rain Light Rain
7:15 AM 62.6 °F 59.0 °F 88% 30.00 in 7.0 mi Calm Calm - N/A Rain Light Rain
7:35 AM 62.6 °F 59.0 °F 88% 30.00 in 10.0 mi West 4.6 mph - N/A   Mostly Cloudy
7:55 AM 62.6 °F 59.0 °F 88% 30.01 in 10.0 mi West 5.8 mph - 0.03 in   Mostly Cloudy
8:15 AM 64.4 °F 60.8 °F 88% 30.02 in 10.0 mi West 9.2 mph - N/A   Scattered Clouds
8:35 AM 64.4 °F 60.8 °F 88% 30.02 in 9.0 mi West 8.1 mph - N/A   Scattered Clouds
8:55 AM 64.4 °F 59.0 °F 83% 30.02 in 10.0 mi West 8.1 mph - N/A   Scattered Clouds
9:15 AM 64.4 °F 60.8 °F 88% 30.02 in 10.0 mi West 6.9 mph - N/A   Mostly Cloudy
9:35 AM 66.2 °F 60.8 °F 83% 30.02 in 10.0 mi WNW 10.4 mph - N/A   Mostly Cloudy
9:55 AM 68.0 °F 59.0 °F 73% 30.02 in 10.0 mi WNW 12.7 mph - N/A   Scattered Clouds
10:15 AM 69.8 °F 57.2 °F 64% 30.02 in 10.0 mi NW 13.8 mph - N/A   Partly Cloudy
10:35 AM 71.6 °F 57.2 °F 60% 30.02 in 10.0 mi NW 15.0 mph 20.7 mph N/A   Clear
10:55 AM 73.4 °F 51.8 °F 47% 30.02 in 10.0 mi NW 16.1 mph 24.2 mph N/A   Clear
11:15 AM 73.4 °F 50.0 °F 44% 30.02 in 10.0 mi NNW 21.9 mph 27.6 mph N/A   Clear
11:35 AM 73.4 °F 50.0 °F 44% 30.02 in - NW 21.9 mph 31.1 mph N/A   Clear
11:55 AM 73.4 °F 50.0 °F 44% 30.02 in 10.0 mi NW 23.0 mph 29.9 mph N/A   Clear
12:15 PM 73.4 °F 50.0 °F 44% 30.02 in 10.0 mi NW 20.7 mph 28.8 mph N/A   Clear
12:35 PM 73.4 °F 50.0 °F 44% 30.02 in 10.0 mi NW 19.6 mph 31.1 mph N/A   Clear
12:50 PM 73.4 °F 50.0 °F 44% 30.02 in 10.0 mi NW 20.7 mph 29.9 mph N/A   Clear
1:15 PM 73.4 °F 51.8 °F 47% 30.03 in 10.0 mi NW 21.9 mph 27.6 mph N/A   Partly Cloudy
1:35 PM 73.4 °F 51.8 °F 47% 30.03 in 10.0 mi NW 23.0 mph 31.1 mph N/A   Partly Cloudy
1:55 PM 73.4 °F 51.8 °F 47% 30.03 in 10.0 mi NW 21.9 mph 31.1 mph N/A   Clear
2:15 PM 73.4 °F 51.8 °F 47% 30.03 in 10.0 mi NW 21.9 mph 28.8 mph N/A   Scattered Clouds
2:35 PM 73.4 °F 55.4 °F 53% 30.03 in 10.0 mi NW 18.4 mph 27.6 mph N/A   Scattered Clouds
2:55 PM 73.4 °F 53.6 °F 50% 30.03 in 10.0 mi NNW 18.4 mph 29.9 mph N/A   Partly Cloudy
3:15 PM 73.4 °F 51.8 °F 47% 30.03 in 10.0 mi NW 24.2 mph 31.1 mph N/A   Scattered Clouds
3:35 PM 71.6 °F 53.6 °F 53% 30.03 in 10.0 mi NNW 20.7 mph 29.9 mph N/A   Mostly Cloudy
3:55 PM 71.6 °F 53.6 °F 53% 30.03 in 10.0 mi NW 20.7 mph 28.8 mph N/A   Mostly Cloudy
4:15 PM 71.6 °F 53.6 °F 53% 30.03 in 10.0 mi NW 20.7 mph 28.8 mph N/A   Scattered Clouds
4:55 PM 71.6 °F 51.8 °F 50% 30.03 in 10.0 mi NNW 19.6 mph 26.5 mph N/A   Scattered Clouds
5:35 PM 69.8 °F 46.4 °F 43% 30.03 in 10.0 mi NNW 25.3 mph - N/A   Partly Cloudy
5:55 PM 69.8 °F 48.2 °F 46% 30.03 in 10.0 mi NW 19.6 mph 28.8 mph N/A   Clear
6:15 PM 69.8 °F 48.2 °F 46% 30.04 in 10.0 mi NW 20.7 mph 29.9 mph N/A   Clear
6:35 PM 69.8 °F 48.2 °F 46% 30.04 in 10.0 mi NNW 21.9 mph 28.8 mph N/A   Scattered Clouds
6:55 PM 69.8 °F 48.2 °F 46% 30.05 in 10.0 mi NNW 20.7 mph 29.9 mph N/A   Scattered Clouds
7:15 PM 68.0 °F 46.4 °F 46% 30.05 in 10.0 mi NNW 19.6 mph 27.6 mph N/A   Scattered Clouds
7:35 PM 68.0 °F 48.2 °F 49% 30.06 in 10.0 mi NNW 15.0 mph 24.2 mph N/A   Partly Cloudy
7:55 PM 66.2 °F 48.2 °F 52% 30.06 in 10.0 mi NNW 15.0 mph 24.2 mph N/A   Partly Cloudy
8:15 PM 66.2 °F 48.2 °F 52% 30.07 in 10.0 mi North 12.7 mph 20.7 mph N/A   Clear
8:35 PM 64.4 °F 48.2 °F 56% 30.07 in 10.0 mi North 12.7 mph 19.6 mph N/A   Partly Cloudy
8:55 PM 64.4 °F 46.4 °F 52% 30.08 in 10.0 mi North 12.7 mph 19.6 mph N/A   Clear
9:35 PM 62.6 °F 48.2 °F 59% 30.10 in 10.0 mi North 8.1 mph - N/A   Mostly Cloudy
9:55 PM 59.0 °F 48.2 °F 67% 30.10 in 10.0 mi NNW 6.9 mph - N/A   Scattered Clouds
10:15 PM 57.2 °F 50.0 °F 77% 30.11 in 10.0 mi NW 6.9 mph - N/A   Clear
10:35 PM 55.4 °F 50.0 °F 82% 30.11 in 10.0 mi WNW 6.9 mph - N/A   Clear
10:55 PM 55.4 °F 50.0 °F 82% 30.11 in 10.0 mi West 6.9 mph - N/A   Clear
11:15 PM 55.4 °F 50.0 °F 82% 30.11 in 10.0 mi WNW 5.8 mph - N/A   Clear
11:35 PM 53.6 °F 50.0 °F 88% 30.12 in 10.0 mi WNW 5.8 mph - N/A   Clear
11:55 PM 53.6 °F 50.0 °F 88% 30.12 in 10.0 mi WNW 5.8 mph - N/A   Clear